Probability
0 0 0 0 0 0 0 0 0 0 0 0 1 3 8 15 22 28 30 28 22 19 19 19 19 21 23 25 26 23 21 21 20 17 15 11 7 5 4 4 4 3 3 3
0 0 0 0 0 0 0 0 0 0 0 0 1 3 7 14 19 25 29 27 22 19 19 18 18 20 23 24 23 20 18 18 16 13 11 10 8 6 5 5 4 3 3 3
0 0 0 0 0 0 0 0 0 0 0 0 0 1 5 11 16 20 23 22 19 16 16 16 16 18 20 21 18 16 15 14 12 10 8 9 9 8 7 6 4 3 3 3
0 0 0 0 0 0 0 0 0 0 0 0 0 0 3 8 13 15 16 15 13 11 11 12 14 15 18 17 15 14 14 13 11 9 8 8 9 8 6 5 4 3 3 3
0 0 0 0 0 0 0 0 0 0 0 0 0 0 1 4 9 11 11 10 10 9 9 10 12 13 14 12 11 12 14 13 11 9 7 7 7 6 4 3 3 3 2 1
0 0 0 0 0 0 0 0 0 0 0 0 0 0 0 2 4 7 9 9 9 9 9 9 10 11 9 7 8 10 10 10 9 7 6 5 5 3 2 1 2 2 1 0
0 0 0 0 0 0 0 0 0 0 0 0 0 0 0 1 3 5 7 8 8 9 10 9 8 9 7 5 5 7 6 5 6 5 5 4 4 2 1 1 1 1 0 0
0 0 0 0 0 0 0 0 0 0 0 0 0 0 0 0 1 3 6 7 9 11 11 8 7 7 6 4 4 4 3 3 3 4 3 3 3 2 1 0 0 0 0 0
0 0 0 0 0 0 0 0 0 0 0 0 0 0 0 0 1 3 5 6 9 11 11 7 5 5 5 4 3 3 3 3 2 1 1 1 2 1 0 0 0 0 0 0
0 0 0 0 0 0 0 0 0 0 0 0 0 0 0 1 2 4 5 6 9 11 9 6 4 5 5 4 3 3 3 3 2 1 0 0 0 0 0 0 0 0 0 0
0 0 0 0 0 0 0 0 0 0 0 0 0 0 1 2 3 3 4 6 9 10 8 6 5 5 4 3 3 3 3 3 3 3 1 0 0 0 0 0 0 0 0 0
0 0 0 0 0 0 0 0 0 0 0 0 0 0 1 2 3 3 4 6 8 8 7 6 6 5 3 3 3 4 3 3 3 3 1 0 0 0 0 0 0 0 0 0
0 0 0 0 0 0 0 0 0 0 0 0 0 0 0 1 2 3 4 5 5 6 6 6 5 4 2 2 4 4 3 3 3 2 1 0 0 0 0 0 0 0 0 0
0 0 0 0 0 0 0 0 0 0 0 0 0 0 0 0 1 3 3 3 2 3 5 5 5 4 3 4 5 5 3 2 2 2 1 0 0 0 0 0 0 0 0 0
0 0 0 0 0 0 0 0 0 0 0 0 0 0 0 0 1 2 1 1 0 1 2 4 5 6 6 6 7 7 4 1 1 1 0 0 0 0 0 0 0 0 0 0
0 0 0 0 0 0 0 0 0 0 0 1 1 1 0 0 1 1 1 0 0 0 1 3 7 9 8 8 9 8 5 2 0 0 0 0 0 0 0 0 0 0 0 0
0 0 0 0 0 0 0 0 1 1 2 3 3 2 1 0 1 1 0 0 0 0 1 4 7 10 10 9 10 9 6 3 1 1 0 0 0 0 0 0 0 0 0 0
0 0 0 0 0 0 0 1 2 2 2 4 4 2 1 1 1 0 0 1 2 1 2 4 7 9 10 11 11 11 9 5 3 2 1 1 0 0 0 0 0 0 0 0
0 0 0 0 0 0 0 1 2 2 2 4 4 2 1 1 0 0 0 1 3 3 2 3 5 8 10 12 12 12 10 8 5 3 3 3 1 0 0 0 0 0 0 0
0 0 0 0 0 0 0 1 2 1 1 3 3 1 1 1 1 1 1 2 2 2 1 2 4 6 8 11 12 12 11 10 8 5 4 3 2 1 0 0 0 0 0 0
0 0 0 0 0 0 0 1 2 1 0 1 1 1 1 1 2 3 3 3 2 1 0 1 3 5 8 11 12 13 14 13 10 7 5 5 3 1 0 0 0 0 0 0
0 0 0 0 0 0 0 1 1 1 0 0 1 1 1 2 4 4 4 4 3 1 1 2 3 6 9 13 15 14 13 13 11 9 8 7 4 1 0 0 0 0 0 0
0 0 0 0 0 0 0 1 2 2 1 0 1 2 1 2 4 5 4 4 3 3 5 6 6 7 10 14 15 12 10 11 11 10 9 8 5 2 1 1 1 0 0 0
0 0 0 0 0 0 0 1 2 2 2 1 1 1 1 1 3 3 3 3 5 6 8 9 10 9 10 12 11 8 7 9 10 10 9 9 7 5 4 3 2 2 1 0
0 0 0 0 0 0 0 0 1 2 3 2 2 1 0 1 2 2 2 2 5 8 10 11 12 12 11 11 8 5 5 7 9 9 10 10 10 8 5 3 3 3 2 1
0 0 0 0 0 0 0 0 0 1 3 3 2 1 0 1 2 1 1 1 5 9 11 12 13 13 12 12 8 5 4 6 8 9 9 10 11 8 4 2 1 2 1 0
Wind_Speed
4 2 6 9 9 9 8 8 9 9 6 3 5 7 8 9 10 10 10 11 11 9 6 7 9 10 10 9 10 9 9 8 6 5 5 4 4 3 3 3 5 5 4 4
3 7 13 11 9 10 10 10 9 7 5 2 3 4 6 9 11 13 14 13 12 9 7 8 8 9 10 9 9 9 9 8 7 5 4 3 4 3 3 3 4 5 5 5
9 11 9 10 11 11 11 9 8 6 1 3 4 1 3 3 4 7 11 12 12 13 12 10 10 9 10 10 10 9 8 8 6 6 4 4 4 3 3 3 2 3 5 5
8 12 12 11 11 10 10 9 6 3 2 1 1 2 5 4 4 8 10 11 12 12 11 10 11 10 11 10 9 8 8 7 6 7 7 8 6 4 4 3 3 3 5 5
8 7 8 11 12 9 9 6 2 2 3 2 3 1 5 1 4 8 10 13 12 12 13 12 11 11 10 10 9 8 8 7 6 6 7 7 5 4 3 3 5 4 3 4
11 9 7 9 9 7 4 2 5 6 5 2 2 1 6 4 6 8 10 13 13 13 12 11 10 10 9 9 9 9 9 7 7 7 7 8 8 7 7 5 5 3 3 3
9 10 7 6 6 7 2 4 4 6 5 3 3 3 9 8 7 9 12 13 14 14 13 12 12 12 11 11 10 9 10 8 7 7 7 7 8 9 9 7 6 5 3 3
5 8 6 4 5 5 2 7 7 4 4 4 3 5 9 8 6 7 9 11 13 14 13 13 13 13 12 12 11 11 10 8 7 8 7 7 7 6 5 5 5 5 4 4
6 7 5 3 3 5 3 2 6 6 2 1 4 6 9 4 2 6 9 11 14 15 15 14 13 13 12 13 12 12 11 9 8 8 8 7 7 6 6 5 5 4 5 5
6 4 5 3 2 2 5 5 5 5 4 2 3 5 6 5 4 6 10 12 13 14 14 14 13 13 12 12 11 11 11 10 9 8 8 7 7 7 7 6 6 6 6 5
3 3 4 3 1 2 3 4 4 3 4 5 3 8 8 9 8 8 10 12 14 16 16 14 13 12 12 11 11 11 11 10 9 9 7 8 7 7 7 7 7 7 6 7
1 4 1 4 3 2 4 4 5 4 2 4 4 9 6 7 7 7 9 11 13 16 15 14 14 12 11 12 12 11 11 11 10 9 8 8 8 7 7 7 7 7 7 6
3 5 3 5 6 5 3 1 4 5 4 3 4 8 4 2 5 7 9 10 11 14 15 14 13 13 13 13 12 13 12 11 10 10 9 9 8 8 8 8 7 7 7 6
4 4 5 5 5 2 1 2 2 5 4 4 7 7 6 5 6 7 9 11 12 14 16 16 14 14 14 13 13 13 12 12 11 10 10 10 10 9 8 8 8 7 7 6
5 2 1 3 3 2 3 5 4 4 7 7 8 8 10 10 9 9 9 10 12 14 16 18 17 15 14 14 13 13 13 12 12 12 11 11 9 8 8 8 8 7 7 7
4 2 1 2 3 3 4 6 6 6 6 7 6 7 7 6 5 6 8 12 14 15 17 18 18 18 17 17 16 15 14 13 13 13 12 11 10 9 9 9 8 7 7 6
2 3 2 2 3 3 5 6 6 5 4 5 6 7 4 5 8 10 11 12 15 15 16 18 18 19 19 18 17 17 16 14 14 13 12 12 12 11 10 10 9 8 8 6
6 4 3 2 1 5 8 3 2 2 1 0 1 3 5 9 9 6 7 11 13 14 16 16 16 17 16 16 16 16 15 15 15 14 13 13 12 12 10 9 9 8 6 6
5 6 3 3 3 5 6 3 2 2 3 3 2 5 4 2 2 2 4 7 11 13 13 14 14 15 15 16 16 15 15 15 15 15 14 14 14 12 11 11 10 7 6 6
3 4 3 2 3 5 5 5 5 1 2 4 4 4 2 3 2 5 5 4 7 7 8 10 10 10 13 14 15 16 16 16 16 16 15 14 13 13 13 11 9 6 6 7
3 2 2 3 3 5 3 6 4 2 4 5 4 4 3 1 4 6 5 3 5 5 6 8 9 10 12 14 15 16 15 17 16 13 12 12 13 13 11 10 7 6 7 7
2 1 1 2 2 5 3 3 1 3 4 3 3 2 4 3 4 5 3 3 4 4 6 8 9 8 9 12 15 16 16 15 11 11 12 12 12 11 10 9 8 7 8 7
2 4 3 4 5 5 3 3 4 3 3 4 3 3 3 3 3 4 2 1 4 5 6 7 9 8 7 10 13 15 13 11 11 11 12 11 11 9 9 10 9 7 6 6
1 1 1 2 5 5 4 3 4 3 3 3 3 4 3 3 3 5 3 1 3 4 5 5 7 8 6 7 9 9 9 11 12 12 11 10 10 9 8 7 7 6 7 6
3 2 2 4 4 4 5 3 4 3 3 3 4 3 2 3 3 3 3 2 3 4 4 5 7 7 6 6 6 7 8 10 10 9 9 8 8 8 7 7 7 8 8 8
3 4 4 5 5 3 5 4 2 2 3 1 2 3 4 3 3 3 4 3 4 5 6 7 7 7 6 6 6 6 7 9 9 8 7 6 6 6 5 5 4 6 7 10
Wind_Direction
247 174 238 238 221 223 251 266 270 263 245 179 188 195 201 180 167 161 160 159 162 172 175 160 157 153 147 145 146 152 148 149 146 138 133 131 132 135 130 133 132 126 122 118
292 253 243 246 251 251 254 263 264 272 246 167 161 204 198 185 182 171 169 169 163 162 168 165 158 156 155 155 158 158 155 154 152 148 145 140 133 136 133 124 119 125 121 119
222 246 253 252 259 261 262 245 235 233 302 60 96 336 221 197 170 164 167 169 166 168 168 166 160 160 157 159 162 161 159 154 151 145 128 117 99 91 91 107 114 123 122 116
241 250 255 260 261 253 263 258 225 187 115 345 116 234 261 206 177 175 175 171 173 170 170 170 167 166 163 165 162 155 153 151 151 146 142 144 143 145 163 154 139 127 123 122
240 243 246 254 255 253 246 251 175 143 131 84 12 149 281 174 202 201 187 180 178 174 173 174 173 167 161 160 158 155 149 150 152 149 148 146 142 144 144 132 128 118 115 120
245 256 245 247 262 264 244 47 49 50 69 51 277 175 271 226 215 207 195 185 180 177 176 174 169 158 156 157 156 155 151 155 155 153 152 149 148 147 144 144 141 132 114 106
271 272 264 260 285 306 28 78 26 360 10 255 260 203 245 236 219 202 196 185 180 176 174 173 168 165 162 161 161 159 156 156 156 152 153 150 152 153 156 156 153 145 134 131
228 274 262 234 211 230 236 140 155 196 234 263 292 248 257 262 237 202 188 179 175 173 174 173 173 170 168 166 165 163 161 159 159 154 152 146 147 147 151 154 150 154 154 156
199 245 264 247 208 161 169 168 164 142 159 198 278 287 297 290 241 172 168 171 174 174 174 174 172 172 170 170 171 169 163 161 163 158 151 148 144 145 147 144 145 149 151 151
181 235 283 285 33 28 139 147 95 111 153 220 280 265 253 256 216 180 172 177 175 173 174 174 174 174 174 173 171 167 165 165 165 156 156 154 150 150 148 143 144 143 145 138
114 166 306 8 134 181 68 73 93 113 156 157 233 262 228 216 204 188 185 183 178 175 177 176 176 174 171 168 168 167 166 161 162 159 156 148 150 146 143 144 147 143 141 141
101 123 241 270 272 152 126 143 136 145 208 171 195 265 254 214 209 197 195 189 184 179 177 176 173 169 167 168 170 169 167 166 168 163 157 155 153 148 146 150 151 146 146 149
95 97 56 354 352 17 56 117 141 136 131 171 195 263 285 229 213 207 200 192 186 178 174 174 172 172 173 172 174 170 171 172 170 163 160 160 160 159 160 160 157 153 152 156
100 101 150 194 227 219 259 251 187 132 155 209 223 241 272 255 233 219 206 196 186 179 176 176 176 177 177 175 175 173 176 173 169 165 165 169 173 172 170 165 162 162 160 162
83 114 194 241 258 238 240 246 232 204 195 200 230 220 230 227 224 219 204 189 181 179 180 181 180 180 178 177 177 177 177 176 173 169 174 179 176 172 168 167 167 167 169 174
71 120 70 300 289 292 278 262 241 233 223 227 241 248 248 237 222 216 207 189 187 186 187 186 183 181 182 182 181 180 180 179 174 175 180 178 173 172 173 173 172 172 177 177
129 121 109 265 300 342 272 251 239 226 221 203 223 244 260 230 225 215 212 194 190 191 190 188 187 186 186 185 182 182 182 177 177 180 180 178 177 178 179 179 175 180 184 181
156 140 148 180 60 236 244 272 279 238 274 211 245 274 223 221 228 216 206 201 196 191 189 188 188 188 187 184 182 180 177 177 180 182 182 181 180 182 179 178 182 185 182 183
154 148 149 152 188 267 287 310 292 246 294 5 328 301 275 265 64 305 233 203 201 192 190 190 188 185 183 183 180 175 177 179 182 185 186 184 182 181 180 184 187 185 180 186
73 108 128 150 184 234 252 300 293 134 283 352 346 327 333 63 116 258 265 227 217 198 186 182 178 174 180 183 175 174 179 181 188 189 187 183 180 181 184 187 185 180 180 190
33 36 151 192 225 257 282 308 343 155 247 313 322 335 343 243 223 256 263 237 212 193 185 170 165 174 182 178 173 179 182 189 191 185 179 177 180 182 183 182 180 176 179 185
154 153 202 165 214 258 323 353 41 241 272 287 296 330 327 309 312 318 293 218 190 172 165 160 163 174 177 173 173 180 189 189 176 171 173 177 179 183 183 177 181 180 179 187
173 186 191 195 222 249 250 230 253 257 268 285 303 315 317 330 2 3 19 168 164 154 157 164 166 164 167 171 174 182 187 170 165 170 175 176 177 180 174 176 181 180 184 191
269 170 140 260 268 272 285 283 284 266 260 286 308 315 339 357 18 25 37 70 125 130 151 149 146 151 165 173 176 180 169 162 164 171 174 172 174 176 174 176 179 184 191 197
234 189 195 250 272 307 313 297 285 289 292 317 323 349 22 30 30 36 41 58 95 99 111 122 131 141 149 150 152 147 145 149 159 167 168 169 173 176 180 185 190 193 201 199
212 190 190 226 232 211 263 284 286 290 303 323 38 51 49 74 66 55 61 64 79 91 97 101 104 109 112 118 122 128 140 148 153 157 161 166 169 174 177 180 197 212 209 208